Temp
70 68 70 71 71 71 71 72 73 73 74 74 74 74 73 73 73 73 73 73 73 72
70 71 71 71 72 71 72 73 73 74 74 74 74 74 73 72 73 73 73 72 72 72
71 71 71 70 71 72 71 72 72 73 74 74 74 74 73 72 73 73 72 73 72 72
71 72 71 71 71 71 71 71 72 72 73 74 74 74 73 72 73 73 72 73 72 73
69 70 71 72 73 73 71 71 71 71 72 72 73 74 73 73 75 73 72 73 72 72
68 70 71 72 73 73 72 72 71 70 71 70 71 72 73 73 73 73 73 73 72 73
68 69 69 71 71 72 72 72 72 71 71 71 71 72 73 74 73 73 74 74 74 74
67 68 68 68 68 69 70 72 72 72 71 72 73 76 73 73 73 73 73 74 74 74
65 67 67 67 67 67 68 69 70 71 73 72 75 72 69 73 73 73 72 73 73 74
64 64 65 66 66 66 67 68 69 69 69 69 70 63 64 67 71 72 71 72 72 73
61 62 64 64 64 64 65 65 66 67 68 67 69 62 62 64 67 69 71 71 72 71
59 60 61 60 62 64 64 64 65 66 66 67 68 63 61 64 68 69 69 70 71 71
59 59 59 59 61 62 63 64 64 65 66 64 67 63 62 63 68 67 68 69 70 61
55 56 56 56 57 60 62 63 63 64 64 66 65 65 57 57 67 66 68 69 69 68
MSLP
1019.53 1019.93 1020.04 1020.11 1020.48 1020.69 1020.83 1020.84 1020.70 1020.82 1020.95 1021.09 1021.26 1021.56 1021.69 1021.85 1022.07 1022.14 1022.42 1022.42 1022.43 1022.45
1019.55 1019.70 1019.98 1020.04 1020.22 1020.41 1020.66 1020.65 1020.73 1020.73 1020.79 1020.96 1021.14 1021.27 1021.63 1021.96 1022.02 1022.21 1022.44 1022.51 1022.52 1022.49
1019.55 1019.70 1019.68 1019.86 1020.21 1020.28 1020.46 1020.57 1020.77 1020.72 1020.71 1020.83 1021.04 1021.20 1021.42 1021.86 1021.94 1022.24 1022.44 1022.53 1022.56 1022.50
1019.34 1019.67 1019.83 1019.79 1019.94 1020.01 1020.17 1020.39 1020.66 1020.65 1020.83 1020.97 1021.04 1021.05 1021.45 1021.71 1021.93 1022.13 1022.38 1022.46 1022.50 1022.45
1019.61 1019.60 1019.71 1019.82 1019.73 1019.77 1019.94 1020.07 1020.49 1020.58 1020.81 1020.87 1020.91 1021.07 1021.28 1021.52 1021.67 1021.90 1022.10 1022.21 1022.40 1022.30
1019.77 1019.60 1019.59 1019.53 1019.67 1019.75 1019.86 1020.03 1020.18 1020.57 1020.72 1020.81 1020.82 1020.98 1021.18 1021.41 1021.51 1021.52 1021.65 1021.89 1022.07 1022.07
1020.00 1019.79 1019.61 1019.47 1019.49 1019.65 1019.85 1020.10 1020.30 1020.45 1020.59 1020.70 1020.85 1020.95 1021.07 1021.27 1021.35 1021.40 1021.33 1021.34 1021.47 1021.54
1020.66 1020.28 1020.00 1019.90 1019.72 1019.72 1019.83 1020.06 1020.29 1020.42 1020.50 1020.47 1020.70 1020.75 1020.84 1020.99 1021.10 1021.22 1021.24 1021.14 1021.11 1021.01
1020.95 1020.84 1020.45 1020.05 1020.05 1020.04 1020.09 1020.16 1020.24 1020.40 1020.43 1020.39 1020.50 1020.54 1020.62 1020.69 1020.85 1020.92 1021.04 1021.02 1020.85 1020.71
1021.29 1021.52 1021.01 1020.30 1020.26 1020.53 1020.61 1020.50 1020.72 1020.78 1020.82 1020.69 1020.73 1020.66 1020.62 1020.52 1020.74 1020.71 1020.83 1020.86 1020.75 1020.60
1021.82 1021.52 1021.21 1021.24 1020.96 1020.89 1020.86 1020.93 1021.28 1021.29 1021.26 1021.40 1021.06 1020.68 1020.64 1020.67 1020.66 1020.75 1020.61 1020.50 1020.46 1020.42
1022.65 1022.39 1022.01 1021.55 1021.31 1021.64 1021.51 1021.57 1021.87 1021.29 1021.29 1021.38 1021.41 1020.93 1020.73 1020.91 1020.91 1020.68 1020.61 1020.51 1020.41 1020.36
1023.21 1023.24 1022.73 1022.80 1022.61 1022.34 1022.09 1022.06 1021.87 1021.58 1021.31 1021.34 1021.54 1020.98 1020.89 1021.06 1020.95 1020.82 1020.67 1020.45 1020.37 1020.32
1023.62 1023.41 1022.98 1022.88 1022.62 1022.47 1022.07 1021.71 1021.91 1022.12 1021.83 1021.83 1021.50 1021.72 1021.18 1020.93 1020.93 1020.75 1020.77 1020.83 1020.65 1020.62
Wind_Speed
6 4 4 5 4 4 4 4 5 6 5 5 4 4 3 2 1 1 1 1 2 1
5 6 5 5 4 4 3 3 5 5 5 5 5 5 4 2 1 1 1 1 2 1
4 4 4 5 5 5 3 3 4 5 6 5 4 4 4 2 2 1 1 1 1 2
4 4 4 5 6 6 4 6 6 5 5 5 5 4 3 3 3 3 2 2 3 4
4 5 5 5 5 4 5 6 6 6 6 6 5 4 5 5 4 4 4 3 3 5
3 3 6 6 6 5 5 6 4 5 6 6 6 5 5 5 5 5 5 4 4 5
5 2 2 2 2 2 3 4 5 5 5 5 5 5 5 5 5 5 5 5 5 5
4 4 1 3 4 5 6 1 4 4 5 5 5 5 6 6 6 6 6 6 5 6
5 3 2 4 5 6 7 7 7 4 5 5 4 8 10 8 6 6 6 6 6 6
5 3 3 6 7 7 5 7 8 7 7 5 4 9 7 4 4 4 5 6 6 5
7 7 7 6 8 7 7 9 5 5 5 5 4 6 5 6 3 4 5 6 6 6
7 6 8 9 9 5 4 4 3 3 5 5 6 9 8 6 4 3 5 5 5 5
8 6 7 5 4 3 2 1 2 4 3 4 6 9 11 5 2 3 3 3 3 8
8 7 7 6 5 6 6 7 6 5 6 4 4 3 1 1 1 2 4 4 3 1
Wind_Direction
185 182 194 176 167 183 188 199 195 198 195 194 179 175 175 146 169 128 332 46 55 53
184 184 204 198 177 176 193 204 218 211 197 204 194 172 168 180 203 70 308 283 303 347
218 200 184 171 196 200 200 212 225 230 212 213 206 183 169 181 224 229 272 231 247 323
237 217 213 196 187 211 204 207 202 214 210 209 215 207 181 208 238 227 236 237 263 275
310 260 216 236 229 197 203 204 210 197 206 208 215 219 209 220 212 224 262 271 243 281
22 315 245 212 229 211 194 208 199 208 205 214 218 220 226 222 234 229 226 239 241 265
7 25 355 125 112 220 207 208 208 219 226 226 234 232 235 232 238 249 246 248 242 261
1 356 343 67 78 61 58 358 259 236 237 234 226 228 225 225 233 244 260 262 260 252
29 6 33 63 53 57 56 44 29 334 266 243 231 234 222 208 213 222 233 253 265 261
47 21 46 73 62 51 42 53 33 22 13 0 14 29 12 334 264 244 240 245 255 271
21 24 29 50 72 54 41 32 15 1 347 331 345 4 3 10 330 293 269 254 255 252
14 21 28 25 34 25 56 48 328 7 1 352 309 316 357 360 327 312 285 280 280 274
20 16 33 22 20 18 42 183 347 357 10 328 300 289 283 300 288 282 287 314 315 65
22 8 19 3 9 4 8 23 18 347 337 330 1 334 78 70 48 33 2 341 330 189